Weather in Pamukkale

Turkey     37°54′59″N   29°06′45″E
temp.,
°C
wind,
m/s
gust,
m/s
humid.,
%
clouds,
%
prec.,
mm/h
press.,
hPa
HPBL,
m
21 january, fri
fri2100:00−2e11510 0.0 102810
03:00−1e22466 0.0 102613
06:00+1wsw114695 0.0 102421
09:00+2sse115031 0.0 102423
12:00+5wnw115587 0.0 1024225
15:00+6se247785 0.2 1022453
18:00+4sse2287100 0.0 102017
21:00+4se338949 0.0 101929
22 january, sat
sat2200:00+4se348997 0.3 101968
03:00+4se3494100 3.0 1016120
06:00+4n2297100 10.3 1016141
09:00+4se2495100 12.8 1015163
12:00+6wsw1282100 0.0 1013384
15:00+3n6684100 0.4 1012344
18:000n5793100 3.4 1014324
21:00−1n3592100 8.1 1015267
23 january, sun
sun2300:00−4n348980 0.4 101782
03:00−6n348983 0.5 1018101
06:00−8nne228929 0.0 101958
09:00−8n338718 0.0 1020107
12:00−4n367566 0.0 1020605
15:00−1nnw686978 0.1 10181094
18:00−2nnw5118093 0.1 1020675
21:00−5n238228 0.1 102268
24 january, mon
mon2400:00−6nne238388 0.0 102456
03:00−6nne228523 0.0 102458
06:00−7nne22856 0.0 102546
09:00−8nne228223 0.0 102774
12:00−4nne117018 0.0 1027485
15:00−2nne11584 0.0 1026703
18:00−3n22701 0.0 102614
21:00−6nne237596 0.0 102937
25 january, tue
tue2500:00−6ne127499 0.0 103045
03:00−7nne227499 0.0 103171
06:00−8ne22755 0.0 103161
09:00−7nne227196 0.0 1031109
12:00−4nne2255100 0.0 1030433
15:00−1nne344955 0.0 1025707
18:00−2nne2268100 0.0 102436
21:00−4nne3471100 0.0 1024114